Hovedside
METAR-TAF:

METAR-TAF

Lufthavner :

Vilhelmina, Sverige

breddegrad: 64-34-44N, lengdegrad: 016-50-00E, høyde over havet: 347 m

Gjeldene værobservasjon

Denne rapporten ble laget for 10 minutter siden, klokken 08:20 UTC
Flau vind
Temperatur -16°C
Luftfuktighet 84%
Trykk 1011 hPa
Sikt: 5000 m
Spredte skyer i en høyde av 200 ft
Overskyet i en høyde av 2200 ft
lett snø

METAR: ESNV 220820Z 00000KT 5000 -SN SCT002 OVC022 M16/M18 Q1011

Tid: 09:30 (08:30 UTC)


TAF: fraværende

Værobservasjoner og værvarsel for over 4000 flyplasser (METAR- og TAF-rapporter).

Tilgjengelige stasjoner er representert av de røde og gule prikkene på kartet.

Hold musepekeren over prikken for å se navnet på stasjonen.

Klikk så for å se værobservasjoner og -varsler.

For å forandre kartet kan du klikke på den grønne knappen med svart kryss for å zoome inn, på den grønne knappen med strek for å zoome ut, eller på de grønne pilene for å se tilstøtende kart.


METAR-TAF: